|   |  | Asteroid 2011 YE29
					
					
					
					
						
					
					
						
							(Preview) 
						
							
								Orbital elements:
2011 YE29                                                Earth MOID = 0.0123 AU
Epoch 2012 Mar. 14.0 TT = JDT 2456000.5                 MPC
M  78.91981              (2000.0)            P               Q
n   0.92554365     Peri.  170.20466     +0.01696129     -0.90824977
a   1.0428090      Node   277.92091     +0.88641504     +0.20711262
e   0.0462880      Incl.   24.96799     +0.46258047     -0.36357491
P   1.06           H   24.6...                                    | Blobrana | 0 |  |  | 
		
			
			
				
				
					|   |   | Asteroid 2011 YH28
					
					
					
					
						
					
					
						
							(Preview) 
						
							
								Orbital elements:
2011 YH28                                           PHA, Earth MOID = 0.0130 AU
Epoch 2012 Mar. 14.0 TT = JDT 2456000.5                 MPC
M 358.87981              (2000.0)            P               Q
n   0.24386113     Peri.  287.48312     -0.82944481     +0.53999180
a   2.5373146      Node   285.41814     -0.43954419     -0.78885378
e   0.7009215      Incl.    8.52669     -0.34470598     -0.29345966
P   4.04           H... | Blobrana | 1 |  |  | 
		
			
			
				
				
					|   |  | Asteroid 2011 YL28
					
					
					
					
						
					
					
						
							(Preview) 
						
							
								Orbital elements:
2011 YL28                                                Earth MOID = 0.0041 AU
Epoch 2012 Mar. 14.0 TT = JDT 2456000.5                 MPC
M  20.59753              (2000.0)            P               Q
n   0.58309912     Peri.   46.96510     -0.82542835     -0.55934915
a   1.4189741      Node    98.88541     +0.49293509     -0.77991705
e   0.3577231      Incl.    4.41959     +0.27510548     -0.28081654
P   1.69           H   25.2           G   0.... | Blobrana | 1 |  |  | 
		
			
			
				
				
					|   |  | Asteroid 2011 YK28
					
					
					
					
						
					
					
						
							(Preview) 
						
							
								Orbital elements:
2011 YK28                                                Earth MOID = 0.1289 AU
Epoch 2012 Mar. 14.0 TT = JDT 2456000.5                 MPC
M  65.88656              (2000.0)            P               Q
n   0.64325582     Peri.  338.89546     +0.31964471     -0.90725080
a   1.3290671      Node    91.63143     +0.90380978     +0.20530248
e   0.1696634      Incl.   15.87064     +0.28452616     +0.36707884
P   1.53           H   23.6           G... | Blobrana | 0 |  |  | 
		
			
			
				
				
					|   |  | Asteroid 2011 YG28
					
					
					
					
						
					
					
						
							(Preview) 
						
							
								Orbital elements:
2011 YG28                                                Earth MOID = 0.1123 AU
Epoch 2012 Mar. 14.0 TT = JDT 2456000.5                 MPC
M  19.16858              (2000.0)            P               Q
n   0.21131387     Peri.  151.59497     +0.07600652     -0.97845101
a   2.7915841      Node   293.49036     +0.87064489     +0.15897062
e   0.6169924      Incl.   12.08300     +0.48600461     -0.13176482
P   4.66           H   21.5... | Blobrana | 0 |  |  | 
		
			
			
				
				
					|   |  | Asteroid 2005 UJ159
					
					
					
					
						
					
					
						
							(Preview) 
						
							
								The 850 - 1900 metre wide asteroid 2005 UJ159 will make a close pass (0.2699 AU), travelling at 0.27 km/second, to the Earth-Moon system on the 29th December, 2011 @ 17:55 UT ±00:01. See more | Blobrana | 0 |  |  | 
		
			
			
				
				
					|   |  | Asteroid 2011 UM147
					
					
					
					
						
					
					
						
							(Preview) 
						
							
								Orbital elements:
2011 UM147                                               Earth MOID = 0.2534 AU
Epoch 2011 Aug. 27.0 TT = JDT 2455800.5                 MPC
M  17.09410              (2000.0)            P               Q
n   0.22039784     Peri.   63.16462     +0.68538016     +0.72043385
a   2.7143415      Node   250.52181     -0.70162495     +0.61440672
e   0.5420908      Incl.    6.45370     -0.19487553     +0.32168222
P   4.47           H   18.8           G... | Blobrana | 1 |  |  | 
		
			
			
				
				
					|   |  | Asteroid 2011 YQ15
					
					
					
					
						
					
					
						
							(Preview) 
						
							
								Orbital elements:
2011 YQ15
Epoch 2012 Mar. 14.0 TT = JDT 2456000.5                 MPC
M 349.62099              (2000.0)            P               Q
n   0.17390602     Peri.  302.97375     -0.95442656     -0.29734100
a   3.1787739      Node   219.74510     +0.28546203     -0.88444377
e   0.5817587      Incl.    2.29978     +0.08707104     -0.35964920
P   5.67           H   18.6           G   0.15           U   6
 MPEC 2011... | Blobrana | 0 |  |  | 
		
			
			
				
				
					|   |  | Asteroid 2011 YU15
					
					
					
					
						
					
					
						
							(Preview) 
						
							
								Orbital elements:
2011 YU15
Epoch 2012 Mar. 14.0 TT = JDT 2456000.5                 MPC
M  12.47245              (2000.0)            P               Q
n   0.21160423     Peri.   87.71095     -0.62187431     -0.78038706
a   2.7890298      Node    40.98108     +0.67307232     -0.57526969
e   0.5007872      Incl.    5.71738     +0.40030737     -0.24507309
P   4.66           H   17.6           G   0.15           U   9 MPEC 2011 - Y44 | Blobrana | 0 |  |  | 
		
			
			
				
				
					|   |  | Asteroid 2011 YV15
					
					
					
					
						
					
					
						
							(Preview) 
						
							
								Orbital elements:
2011 YV15                                                Earth MOID = 0.2987 AU
Epoch 2012 Mar. 14.0 TT = JDT 2456000.5                 MPC
M   3.06459              (2000.0)            P               Q
n   0.21154945     Peri.  162.99996     -0.96417811     -0.26523931
a   2.7895112      Node     1.62757     +0.22971269     -0.84048356
e   0.5378009      Incl.    5.95204     +0.13263726     -0.47247803
P   4.66           H   17.0           G   0.1... | Blobrana | 0 |  |  | 
		
			
			
				
				
					|   |  | Asteroid 2011 YW15
					
					
					
					
						
					
					
						
							(Preview) 
						
							
								Orbital elements:
2011 YW15                                                Earth MOID = 0.0137 AU
Epoch 2012 Mar. 14.0 TT = JDT 2456000.5                 MPC
M  47.25236              (2000.0)            P               Q
n   0.54562903     Peri.  353.63981     +0.08156111     -0.99276627
a   1.4832160      Node    91.65711     +0.91826553     +0.04048294
e   0.3285857      Incl.    5.05686     +0.38747413     +0.11303214
P   1.81           H   24.6           G   0...                      | Blobrana | 0 |  |  | 
		
			
			
				
				
					|   |  | Asteroid 2011 YX15
					
					
					
					
						
					
					
						
							(Preview) 
						
							
								Orbital elements:
2011 YX15                                                Earth MOID = 0.0176 AU
Epoch 2012 Mar. 14.0 TT = JDT 2456000.5                 MPC
M 103.02737              (2000.0)            P               Q
n   0.82366821     Peri.  125.14113     +0.71310141     -0.66564629
a   1.1271140      Node   277.69315     +0.54905967     +0.72540391
e   0.1630629      Incl.   12.82661     +0.43591268     +0.17522610
P   1.20           H   25....                                    | Blobrana | 0 |  |  | 
		
			
			
				
				
					|   |  | Asteroid 2011 FQ6
					
					
					
					
						
					
					
						
							(Preview) 
						
							
								Orbital elements:
2011 FQ6                                                 Earth MOID = 0.0007 AU
Epoch 2011 Feb. 8.0 TT = JDT 2455600.5                  MPC
M  27.45782              (2000.0)            P               Q
n   1.00355260     Peri.  247.69229     +0.32658352     -0.94515498
a   0.9880432      Node   183.25865     +0.89645993     +0.31143399
e   0.3506594      Incl.    5.07265     +0.29950425     +0.09844250
P   0.98           H   27.7           G   0.... | Blobrana | 2 |  |  | 
		
			
			
				
				
					|   |  | Asteroid 2011 YW10
					
					
					
					
						
					
					
						
							(Preview) 
						
							
								Orbital elements:
2011 YW10                                                Earth MOID = 0.0094 AU
Epoch 2012 Mar. 14.0 TT = JDT 2456000.5                 MPC
M 206.04714              (2000.0)            P               Q
n   1.22590913     Peri.  217.64683     +0.56219242     +0.82540394
a   0.8646305      Node    86.61690     -0.74568926     +0.53283779
e   0.4454069      Incl.    2.95483     -0.35761322     +0.18652673
P   0.80           H   24.0           G... | Blobrana | 0 |  |  | 
		
			
			
				
				
					|   |  | Asteroid 2011 YX10
					
					
					
					
						
					
					
						
							(Preview) 
						
							
								Orbital elements:
2011 YX10                                                Earth MOID = 0.2441 AU
Epoch 2012 Mar. 14.0 TT = JDT 2456000.5                 MPC
M 287.00632              (2000.0)            P               Q
n   1.05681082     Peri.  345.70902     -0.17158374     +0.88690825
a   0.9545629      Node   273.01837     -0.85645441     -0.34944053
e   0.3319308      Incl.   25.43539     -0.48687253     +0.30213421
P   0.93           H   21.... | Blobrana | 0 |  |  |